#timestamp,LO_Frequency,Hit,StdDev 
1508918415.8,286046995.5,N
1508918435.7,286046992.0,Y
1508918455.5,286047002.0,P
1508918475.4,286046999.7,N
1508918495.2,286046998.2,N
1508918515.0,286047001.9,N
1508918515.9,286047001.9,N
1508918535.8,286046998.9,N
1508918555.6,286046999.0,N
1508918575.4,286046995.1,N
1508918595.3,286046994.4,N
1508918615.1,286046992.7,N
1508918616.0,286046992.7,N
1508918635.8,286046995.6,N
1508918655.7,286046992.2,N
1508918675.5,286046993.3,N
1508918695.3,286046990.2,N
1508918715.2,286046990.5,N
1508918735.9,286046991.4,N
1508918755.7,286046987.5,Y
1508918775.6,286046999.1,P
1508918795.4,286047004.2,N
1508918815.2,286047003.0,N
1508918835.1,286047001.7,N
1508918836.0,286047001.7,N
1508918855.8,286047004.0,N
1508918875.6,286047002.7,N
1508918895.5,286046999.8,N
1508918915.3,286047005.8,N
1508918935.2,286047002.1,N
1508918955.9,286047004.2,N
1508918975.7,286047004.0,N
1508918995.6,286046998.1,N
1508919015.4,286046998.1,N
1508919035.2,286047001.5,N
1508919055.1,286047006.8,N
1508919056.0,286047006.8,N
1508919075.8,286047006.2,N
1508919095.6,286047004.9,N
1508919115.5,286047002.9,N
1508919135.3,286047006.8,N
1508919155.1,286047004.7,N
1508919175.9,286047004.0,N
1508919195.7,286047001.5,N
1508919215.5,286047001.3,N
1508919235.4,286047002.8,N
1508919255.2,286047004.0,N
1508919275.0,286047000.1,N
1508919275.9,286047000.1,N
1508919295.8,286047003.5,N
1508919315.6,286047002.3,N
1508919335.4,286047001.0,N
1508919355.3,286046998.1,N
1508919375.1,286047001.6,N
1508919395.8,286047001.3,N
1508919415.7,286047002.6,N
1508919435.5,286047003.5,N
1508919455.3,286047003.3,N
1508919475.2,286047000.3,N
1508919495.0,286047002.7,N
1508919495.9,286047002.7,N
1508919515.7,286047000.3,N
1508919535.6,286047002.7,N
1508919555.4,286047001.9,N
1508919575.3,286047001.6,N
1508919595.1,286047002.8,N
1508919596.0,286047002.8,N
1508919615.8,286047000.4,N
1508919635.7,286047005.5,Y
1508919655.5,286047000.1,P
1508919675.3,286047004.2,P
1508919695.2,286047001.6,N
1508919715.9,286047000.0,N
1508919735.7,286046995.0,Y
1508919755.6,286047000.3,P
1508919775.4,286046998.9,N
1508919795.2,286047000.9,N
1508919815.1,286047002.5,N
1508919816.0,286047002.5,N
1508919835.8,286047000.8,N
1508919855.7,286046998.2,N
1508919875.5,286046998.7,N
1508919895.3,286046999.5,N
1508919915.2,286046995.3,Y
1508919935.9,286046997.8,P
1508919955.7,286046995.3,P
1508919975.6,286046999.5,N
1508919995.4,286046997.9,N
1508920015.2,286046997.4,N
1508920035.1,286046998.7,N
1508920036.0,286046998.7,N
1508920055.8,286046995.1,Y
1508920075.6,286046998.3,P
1508920095.5,286046998.7,P
1508920115.3,286046997.5,P
1508920135.2,286046996.8,Y
1508920155.9,286046995.4,P
1508920175.7,286046998.8,N
1508920195.6,286047001.2,N
1508920215.4,286046999.6,N
1508920235.2,286046995.5,N
1508920255.1,286046997.8,N
1508920256.0,286046997.8,N
1508920275.8,286046999.1,N
1508920295.6,286047001.2,N
1508920315.5,286047002.7,N
1508920335.3,286047000.9,N
1508920355.1,286047000.7,N
1508920375.9,286046997.7,N
1508920395.7,286046994.0,N
1508920415.5,286046992.5,Y
1508920435.4,286046992.6,P
1508920455.2,286046992.8,N
1508920475.0,286046996.2,N
1508920476.0,286046996.2,N
1508920495.8,286046993.6,N
1508920515.6,286046992.9,Y
1508920535.5,286047001.3,P
1508920555.3,286047001.6,N
1508920575.1,286047000.6,N
1508920595.9,286046999.6,N
1508920615.7,286046998.7,N
1508920635.5,286047001.3,N
1508920655.4,286046999.8,N
1508920675.2,286046999.8,N
1508920695.0,286046998.4,N
1508920695.9,286046998.4,N
1508920715.8,286046996.0,N
1508920735.6,286046993.0,Y
1508920755.4,286046993.5,P
1508920775.3,286046995.0,N
1508920795.1,286047000.9,N
1508920815.8,286047000.6,N
1508920835.7,286046997.3,N
1508920855.5,286046997.8,N
1508920875.3,286046998.7,N
1508920895.2,286047005.5,N
1508920915.0,286047002.8,N
1508920915.9,286047002.8,N
1508920935.8,286047000.1,N
1508920955.6,286046998.4,N
1508920975.4,286046997.5,N
1508920995.3,286046998.6,N
1508921015.1,286047002.0,N
1508921016.0,286047002.0,N
1508921035.8,286047001.7,N
1508921055.7,286047001.6,N
1508921075.5,286047002.5,N
1508921095.3,286047000.7,N
1508921115.2,286046998.4,N
1508921135.0,286046998.4,N
1508921135.9,286046998.4,N
1508921155.7,286047001.1,N
1508921175.6,286047004.2,N
1508921195.4,286047003.0,N
1508921215.2,286047001.3,N
1508921235.1,286047003.0,N
1508921236.0,286047003.0,N
1508921255.8,286047006.0,N
1508921275.6,286047004.3,N
1508921295.5,286046999.8,N
1508921315.3,286046996.8,N
1508921335.1,286046997.5,N
1508921355.9,286046996.9,N
1508921375.7,286047000.3,N
1508921395.5,286047002.6,N
1508921415.4,286046998.4,N
1508921435.2,286046996.6,N
1508921455.0,286046998.6,N
1508921455.9,286046998.6,N
1508921475.8,286046998.4,N
1508921495.6,286046997.4,N
1508921515.4,286046996.0,N
1508921535.3,286046999.0,N
1508921555.1,286046999.9,N
1508921575.8,286046998.6,N
1508921595.7,286047000.3,N
1508921615.5,286046999.6,N
1508921635.3,286046999.0,N
1508921655.2,286046999.5,N
1508921675.9,286046998.7,N
1508921695.7,286046998.7,N
1508921715.6,286046998.6,N
1508921735.4,286047000.4,N
1508921755.2,286046999.9,N
1508921775.1,286047002.5,N
1508921776.0,286047002.5,N
1508921795.8,286047003.8,N
1508921815.6,286047003.8,N
1508921835.5,286047001.5,N
1508921855.3,286047002.8,N
1508921875.1,286046999.3,N
1508921895.9,286046997.4,N
1508921915.7,286046995.3,N
1508921935.5,286047000.7,N
1508921955.4,286047003.8,N
1508921975.2,286046998.3,N
1508921995.0,286047001.1,N
1508921995.9,286047001.1,N
